Wetbulb
55.59 55.82 56.17 55.96 56.17 56.07 56.17 55.97 55.72 56.09 56.18 56.18 56.23 56.31 56.46 56.52 56.72 57.26 57.63 57.81 57.73 57.63 57.86 58.45 59.48 60.88 54.82 44.78 49.06 67.31 76.29 76.78 72.44 59.06 52.85 52.44 52.32 52.88 51.66 53.55 54.60 59.70 60.87 63.98 65.40 66.91 65.11
55.28 55.38 55.49 55.24 55.73 55.89 55.68 55.70 55.83 55.97 56.02 55.96 55.99 56.02 56.28 56.60 56.80 57.23 57.38 57.12 56.95 57.04 57.74 58.52 60.07 61.45 50.73 41.41 51.83 64.58 66.25 61.75 59.37 54.24 52.90 53.22 53.16 55.17 51.99 52.97 53.52 54.91 58.42 61.04 65.27 65.20 64.98
55.34 54.97 54.99 54.88 54.88 55.00 55.78 55.71 55.79 55.91 55.84 55.85 55.88 55.98 56.13 56.34 56.44 56.83 56.61 56.15 56.36 56.61 57.66 58.70 60.38 60.26 48.61 46.48 58.44 55.02 54.03 57.16 56.12 54.31 52.00 52.98 53.75 52.00 52.27 52.65 56.18 55.47 53.49 58.71 62.36 64.18 63.85
55.11 54.78 54.76 54.82 54.80 55.15 55.37 55.75 55.71 55.70 55.64 55.63 55.77 55.89 56.09 55.95 56.09 56.08 55.64 55.37 55.86 57.08 58.09 59.36 61.45 54.48 45.87 51.77 54.88 57.57 53.81 52.47 56.59 55.73 54.26 55.18 54.12 52.24 51.40 54.16 54.55 52.90 51.91 48.29 57.27 63.18 63.79
54.80 54.82 54.63 54.74 54.86 55.22 55.32 55.20 55.26 55.32 55.28 55.48 55.62 55.66 55.68 55.59 55.62 55.45 55.14 55.00 56.42 58.27 59.55 61.12 51.13 48.46 47.29 58.88 53.35 54.05 53.78 51.82 51.98 51.00 53.79 58.56 54.07 50.09 51.59 49.75 47.55 49.02 45.04 49.32 52.05 63.07 62.58
55.18 54.62 54.82 54.59 54.36 54.14 54.00 54.26 54.94 55.00 55.15 55.37 55.48 55.38 55.52 55.42 55.53 54.98 53.98 54.53 55.48 57.45 58.89 59.98 58.82 45.38 49.22 49.48 53.70 53.95 51.48 52.48 50.22 49.28 50.55 51.96 49.92 47.43 46.66 46.49 41.50 45.51 45.86 48.48 48.63 57.92 61.11
54.83 54.76 54.33 54.25 54.14 54.10 54.15 54.70 54.88 55.03 55.27 55.24 55.54 55.65 55.57 55.47 54.92 53.95 51.21 50.05 49.66 47.98 51.20 48.66 44.84 45.85 49.55 53.99 56.02 51.68 50.50 50.55 48.69 47.97 43.45 45.02 45.40 44.20 47.69 48.44 50.13 49.00 48.33 47.52 50.57 53.62 52.08
54.80 54.34 54.10 53.88 54.04 54.14 54.39 54.48 54.94 55.12 55.26 55.38 55.57 55.67 55.44 54.96 54.27 53.87 48.61 50.34 49.39 50.69 46.30 51.83 52.04 51.52 53.03 53.72 52.19 52.97 50.82 47.59 45.65 42.85 43.08 42.96 39.92 46.73 49.67 50.21 49.50 48.83 46.59 45.72 49.16 52.01 50.11
54.31 54.39 54.10 54.18 54.01 54.84 54.75 54.96 55.05 55.11 55.31 55.37 55.47 55.52 54.96 54.37 53.66 50.47 48.61 51.49 53.11 50.62 44.17 48.92 51.08 50.65 51.50 53.82 51.41 51.27 49.32 45.66 43.23 41.65 40.97 39.89 43.72 47.36 46.78 45.42 45.27 43.04 42.57 44.65 45.69 48.48 47.44
54.24 54.03 53.99 54.35 54.57 54.66 54.89 54.91 55.07 55.33 55.57 55.52 55.32 55.20 54.52 52.55 50.37 48.02 50.79 52.23 52.62 51.48 39.14 44.90 45.74 49.92 52.86 52.93 47.95 55.38 49.11 47.77 43.84 42.59 43.01 41.38 44.49 45.63 43.43 43.22 44.04 39.44 46.74 47.20 46.13 42.41 39.12
54.14 54.50 54.14 53.91 53.81 55.06 54.29 54.30 55.04 55.42 55.26 55.34 55.02 54.67 53.53 51.94 47.32 49.30 52.04 51.57 51.69 48.99 33.43 47.62 46.12 53.12 50.51 46.66 45.96 47.99 49.92 48.04 44.12 43.57 42.57 41.30 42.12 42.42 42.33 43.96 45.35 43.19 45.59 43.34 43.71 40.15 42.01
54.45 53.97 54.10 54.69 53.97 54.79 55.08 55.04 55.42 55.30 55.12 55.10 54.65 53.99 52.70 49.17 46.02 50.71 51.58 50.98 49.77 37.83 35.45 45.40 48.83 47.16 46.90 45.82 46.91 48.32 47.38 48.34 47.07 43.97 41.38 43.12 44.64 43.65 44.33 45.16 45.84 46.29 42.98 40.97 38.78 37.85 34.81
54.55 54.47 54.34 54.12 53.77 54.92 55.04 55.16 55.24 54.98 54.80 54.31 53.43 52.51 50.53 50.55 48.65 50.16 50.88 48.81 37.31 35.32 45.95 45.48 42.96 44.95 42.78 42.38 44.69 44.93 44.81 43.58 41.35 37.46 37.99 41.06 42.65 43.75 45.13 41.25 42.60 41.40 37.65 33.56 33.90 33.26 34.43
55.26 54.88 54.20 53.85 53.85 54.76 55.16 55.28 55.08 54.80 54.27 53.24 51.50 50.78 49.52 50.21 48.25 49.78 49.75 43.71 33.70 43.50 44.23 47.54 44.71 42.31 42.00 42.27 42.45 43.66 42.34 41.13 40.28 39.79 35.82 36.04 37.00 41.40 44.29 43.76 41.29 39.08 38.44 34.30 29.96 30.45 34.25
55.03 54.67 54.15 54.02 54.19 54.24 55.40 55.30 54.92 54.43 53.88 52.14 50.56 46.56 47.13 49.93 50.23 49.08 47.00 35.94 35.95 42.56 47.73 46.85 43.38 40.48 40.67 42.79 42.46 41.80 39.94 40.38 43.01 42.01 39.63 35.58 37.09 43.75 44.02 43.09 45.04 38.58 37.12 37.90 33.88 29.56 31.99
55.14 54.97 54.51 54.38 54.19 54.71 55.59 55.52 54.92 54.41 53.52 51.82 47.84 49.72 51.48 51.53 50.92 49.06 42.39 36.51 41.44 47.13 49.44 45.60 40.08 40.58 38.48 40.84 40.21 40.42 39.51 44.24 44.15 43.94 40.94 40.26 36.76 40.71 44.85 44.33 43.49 41.08 42.61 36.73 33.58 31.37 29.49
55.29 54.93 55.17 54.24 54.21 55.35 55.77 55.69 54.96 53.99 52.75 51.26 50.77 50.03 53.31 51.82 49.58 45.59 36.51 37.05 44.90 50.03 50.44 46.39 42.89 40.94 40.10 40.67 40.50 38.88 41.36 46.21 49.36 46.33 42.07 38.23 38.44 40.26 42.02 40.51 40.97 39.30 37.57 35.06 35.14 33.38 31.92
55.32 55.76 54.80 54.96 54.90 55.91 56.09 55.77 54.53 53.08 51.57 49.09 50.26 48.14 53.59 51.02 45.69 39.34 40.35 43.02 47.62 49.17 50.24 48.88 46.28 44.05 43.23 43.74 41.28 40.22 43.11 46.13 52.20 50.45 42.83 40.85 37.16 35.70 40.43 41.99 42.77 42.33 39.84 37.08 34.65 32.96 31.29
55.80 55.80 55.88 55.88 55.90 55.70 56.12 55.46 54.17 52.61 51.79 45.56 48.67 48.73 53.14 50.89 41.97 41.72 44.12 47.18 48.49 47.98 47.67 47.24 46.40 46.78 45.79 42.85 41.63 42.30 45.08 51.19 55.35 52.98 49.01 43.76 37.01 34.25 38.14 38.77 40.86 38.32 38.28 35.69 34.57 33.14 31.72
55.26 55.27 55.47 55.90 56.02 56.14 56.03 55.22 53.88 52.53 51.97 48.88 49.39 47.19 46.63 47.29 43.69 43.55 41.92 42.71 45.42 49.99 48.29 47.82 47.69 48.13 45.15 43.11 42.40 43.30 45.94 50.42 52.58 53.88 58.19 50.45 38.28 37.21 35.24 36.71 39.89 40.76 43.79 40.29 37.23 35.11 33.24
54.86 54.98 55.02 55.38 55.84 56.04 56.16 55.34 54.09 52.75 51.68 48.05 45.77 43.69 43.06 41.65 41.98 41.88 41.53 43.00 44.83 44.90 47.59 46.83 45.66 46.29 45.05 42.10 41.44 42.03 46.09 49.28 52.06 56.28 50.26 47.30 42.57 41.98 43.16 43.78 46.00 44.54 45.94 45.81 41.03 39.93 39.37
55.13 55.19 55.16 55.16 55.50 55.96 56.06 55.63 54.21 53.03 51.16 47.62 43.69 42.85 42.59 39.85 41.33 40.98 40.56 40.50 43.82 44.76 44.67 44.53 43.79 46.91 44.58 41.81 42.07 40.70 44.46 45.78 47.06 50.03 48.19 46.44 43.01 41.77 42.04 45.85 45.54 44.77 46.98 47.32 45.82 42.33 40.96
55.23 55.31 55.50 55.20 55.30 55.66 55.92 55.25 54.02 52.97 49.72 45.97 46.05 45.23 43.51 39.27 39.63 39.39 39.81 41.43 44.66 45.16 46.57 48.21 47.11 45.55 44.47 46.71 48.76 48.86 45.99 47.55 48.94 48.53 47.26 45.80 42.42 40.30 38.78 42.72 43.21 40.55 44.50 46.06 47.03 47.20 45.25
55.35 55.47 55.62 55.68 55.22 55.28 55.80 55.58 54.84 53.51 50.67 45.08 45.71 45.45 41.16 36.97 40.32 42.40 45.29 44.36 43.61 44.29 43.57 47.61 47.41 44.48 47.89 49.62 48.36 44.31 44.71 45.94 47.24 47.38 48.33 44.83 42.26 39.74 38.57 39.09 34.34 42.93 48.48 50.14 48.54 50.49 50.49
55.55 55.61 55.71 55.78 55.54 55.08 55.22 55.72 55.65 54.41 53.25 46.06 45.55 45.60 41.17 37.64 40.29 42.96 43.20 43.17 44.31 43.61 43.84 45.53 47.60 48.11 46.57 44.44 41.56 39.85 39.34 41.17 44.32 47.10 46.23 45.42 42.29 39.20 37.63 36.34 40.10 45.59 48.85 48.92 47.56 47.36 51.25
56.05 55.73 55.81 55.89 55.84 55.54 55.08 54.96 55.22 54.84 53.70 46.34 45.61 46.61 44.46 40.87 39.73 44.98 43.19 44.29 40.47 39.95 41.33 44.36 47.10 46.92 44.34 40.13 39.40 36.03 36.01 37.97 39.53 43.92 44.95 44.27 43.28 42.44 37.81 35.96 35.44 43.51 50.60 53.53 51.19 44.09 51.80
56.41 56.15 56.11 55.89 55.79 55.78 55.38 54.88 54.56 54.21 54.17 47.19 45.95 46.10 45.99 42.12 43.40 43.11 42.10 42.41 44.78 41.39 39.40 40.84 44.48 42.65 43.60 37.08 36.27 35.19 36.58 42.02 38.29 40.61 41.28 41.55 41.64 39.83 39.06 38.17 42.41 48.42 52.24 53.41 42.22 44.04 52.16
56.39 56.41 56.29 56.07 55.63 55.45 55.41 54.77 54.25 53.69 53.80 48.23 44.79 47.03 45.78 42.46 43.60 47.05 48.25 45.55 44.63 42.00 39.43 41.91 39.27 39.58 39.46 37.78 37.01 37.07 35.59 38.14 39.90 41.68 42.30 41.79 40.28 39.85 38.97 37.88 38.43 51.71 52.43 47.41 49.32 50.89 53.20
56.09 55.83 55.59 55.44 55.69 55.67 55.45 54.56 53.79 52.94 53.00 50.21 43.11 47.24 47.54 43.02 41.01 45.98 48.96 50.22 49.46 47.85 43.40 41.00 37.58 39.18 41.31 38.97 38.51 37.40 37.83 41.86 40.87 39.11 44.15 41.83 44.05 42.73 43.67 43.29 48.31 51.74 51.44 52.98 52.68 52.54 53.39
MSLP
1019.01 1018.69 1018.45 1018.17 1017.89 1017.73 1017.49 1017.17 1016.91 1016.58 1016.28 1015.96 1015.63 1015.38 1015.10 1014.86 1014.55 1014.16 1013.75 1013.32 1012.80 1012.42 1012.06 1011.80 1011.50 1011.17 1010.65 1009.87 1007.39 1006.00 1005.91 1005.96 1006.65 1006.97 1006.99 1007.17 1007.38 1007.42 1007.36 1006.99 1006.67 1006.89 1006.39 1005.68 1004.74 1005.13 1005.52
1019.12 1018.86 1018.58 1018.33 1018.06 1017.72 1017.34 1017.10 1016.90 1016.54 1016.20 1015.78 1015.58 1015.25 1014.88 1014.51 1014.21 1013.93 1013.52 1013.10 1012.58 1012.13 1011.76 1011.44 1011.27 1011.07 1010.66 1008.91 1006.14 1006.03 1006.30 1006.60 1006.70 1006.94 1007.03 1006.99 1006.86 1006.84 1006.94 1006.63 1006.60 1005.76 1005.98 1005.04 1004.75 1004.77 1004.94
1019.17 1018.91 1018.61 1018.31 1018.03 1017.67 1017.31 1017.03 1016.64 1016.35 1016.12 1015.85 1015.47 1015.10 1014.67 1014.21 1013.77 1013.42 1013.06 1012.66 1012.31 1011.94 1011.58 1011.29 1011.22 1011.00 1010.16 1007.33 1006.10 1006.18 1006.35 1006.31 1006.39 1006.54 1006.77 1006.64 1006.46 1006.61 1006.62 1006.32 1005.99 1005.87 1005.75 1005.20 1005.32 1005.42 1005.44
1019.16 1018.95 1018.71 1018.39 1018.03 1017.74 1017.47 1017.11 1016.75 1016.36 1015.94 1015.63 1015.19 1014.75 1014.34 1014.00 1013.52 1013.00 1012.51 1012.11 1011.89 1011.57 1011.20 1011.08 1011.12 1010.97 1009.07 1006.40 1006.07 1006.04 1006.05 1006.01 1006.05 1006.08 1006.21 1006.11 1006.26 1006.65 1006.87 1006.59 1006.38 1006.60 1006.41 1006.32 1005.71 1005.66 1005.85
1019.22 1018.92 1018.61 1018.22 1017.95 1017.71 1017.37 1016.98 1016.51 1016.13 1015.80 1015.40 1015.08 1014.66 1014.12 1013.55 1013.04 1012.49 1012.02 1011.63 1011.16 1010.76 1010.87 1010.95 1011.09 1010.62 1008.20 1006.08 1006.11 1005.45 1005.44 1005.75 1005.85 1005.95 1006.01 1006.12 1006.60 1007.12 1007.26 1007.35 1007.60 1007.63 1007.59 1007.11 1006.31 1005.83 1006.07
1019.26 1018.85 1018.51 1018.21 1017.84 1017.55 1017.26 1016.89 1016.45 1015.99 1015.60 1015.25 1014.91 1014.44 1013.91 1013.37 1012.78 1012.10 1011.50 1010.82 1010.75 1010.83 1010.97 1011.02 1010.67 1010.52 1007.59 1006.54 1005.77 1005.42 1005.36 1005.49 1005.63 1005.91 1006.21 1006.55 1007.12 1007.54 1008.09 1007.90 1008.46 1008.23 1007.95 1007.23 1007.12 1006.49 1006.27
1019.21 1018.82 1018.57 1018.21 1017.89 1017.53 1017.19 1016.83 1016.49 1016.10 1015.65 1015.15 1014.54 1014.10 1013.57 1013.08 1012.47 1011.99 1011.37 1010.55 1010.97 1010.81 1010.42 1009.58 1009.11 1008.60 1007.37 1006.45 1005.79 1005.44 1005.29 1005.48 1005.66 1006.14 1006.82 1007.24 1007.85 1007.90 1007.74 1007.79 1007.95 1008.11 1008.02 1007.68 1006.48 1006.51 1006.47
1019.23 1018.98 1018.62 1018.19 1017.80 1017.43 1017.04 1016.68 1016.34 1015.91 1015.43 1014.85 1014.32 1013.81 1013.22 1012.71 1012.13 1011.77 1011.64 1011.11 1011.07 1011.06 1010.27 1008.58 1008.28 1007.87 1007.09 1006.69 1006.31 1005.48 1005.30 1005.83 1006.19 1006.98 1007.26 1007.73 1007.85 1007.54 1007.55 1007.71 1007.90 1008.00 1007.93 1007.53 1006.57 1006.07 1006.39
1019.34 1019.01 1018.65 1018.20 1017.81 1017.41 1017.03 1016.64 1016.20 1015.74 1015.23 1014.75 1014.25 1013.74 1013.20 1012.52 1011.92 1011.77 1011.59 1010.80 1010.52 1010.59 1010.33 1008.09 1007.45 1007.10 1006.44 1006.54 1006.05 1005.41 1005.34 1005.70 1006.54 1007.37 1007.65 1008.02 1007.65 1007.27 1007.42 1007.53 1007.73 1007.91 1007.88 1007.73 1007.35 1006.43 1006.06
1019.19 1018.82 1018.45 1018.17 1017.73 1017.34 1016.90 1016.41 1015.92 1015.46 1015.00 1014.57 1014.11 1013.54 1013.04 1012.35 1012.10 1012.03 1011.08 1010.33 1010.17 1010.10 1009.82 1007.75 1006.78 1005.95 1006.06 1005.86 1005.64 1005.02 1005.01 1005.45 1006.54 1007.14 1007.94 1007.90 1007.24 1007.15 1007.24 1007.43 1007.55 1007.73 1007.26 1007.47 1007.60 1007.88 1007.41
1019.07 1018.76 1018.37 1017.91 1017.53 1017.08 1016.60 1016.13 1015.65 1015.16 1014.70 1014.24 1013.83 1013.40 1013.08 1012.88 1012.68 1011.77 1010.63 1010.13 1009.87 1009.80 1009.16 1006.71 1005.86 1005.16 1005.65 1005.86 1005.52 1004.97 1004.93 1005.14 1006.38 1007.16 1007.90 1007.51 1007.12 1007.04 1006.96 1007.01 1007.16 1007.16 1007.15 1007.60 1007.70 1008.35 1008.53
1019.04 1018.66 1018.23 1017.84 1017.41 1016.93 1016.39 1015.87 1015.35 1014.87 1014.37 1013.96 1013.67 1013.36 1013.07 1012.96 1012.80 1010.95 1010.23 1010.01 1009.86 1009.92 1008.08 1006.30 1005.44 1005.33 1005.70 1005.61 1005.51 1005.25 1005.05 1005.29 1006.21 1007.09 1007.53 1007.42 1007.02 1006.78 1006.37 1006.46 1006.64 1006.87 1007.50 1008.40 1009.18 1009.66 1009.68
1018.96 1018.58 1018.21 1017.84 1017.33 1016.80 1016.19 1015.61 1015.09 1014.55 1014.02 1013.51 1013.09 1012.89 1012.91 1012.62 1011.79 1010.80 1010.28 1010.15 1010.48 1009.25 1007.77 1006.73 1006.01 1005.78 1005.72 1005.80 1005.68 1005.59 1005.78 1006.20 1006.98 1007.78 1008.31 1007.68 1006.95 1006.31 1006.08 1006.60 1006.82 1007.42 1008.82 1009.84 1010.68 1011.13 1010.55
1018.96 1018.56 1018.14 1017.73 1017.27 1016.60 1015.96 1015.38 1014.80 1014.18 1013.58 1012.95 1012.42 1012.24 1012.16 1011.74 1011.20 1010.88 1010.45 1010.71 1010.38 1009.19 1007.97 1006.81 1006.45 1006.14 1006.12 1006.13 1006.01 1005.97 1006.14 1006.77 1007.17 1007.86 1008.85 1008.32 1007.19 1006.19 1005.54 1005.83 1006.43 1007.52 1008.57 1010.02 1011.08 1011.97 1011.08
1019.03 1018.56 1018.09 1017.67 1017.13 1016.48 1015.84 1015.20 1014.52 1013.84 1013.17 1012.55 1012.09 1012.15 1012.11 1011.01 1010.96 1011.42 1011.25 1011.52 1010.55 1009.38 1008.19 1007.42 1006.95 1006.84 1006.76 1006.42 1006.39 1006.35 1006.52 1006.75 1006.70 1007.06 1007.99 1008.24 1007.31 1005.99 1005.44 1005.14 1005.65 1007.56 1008.48 1009.14 1010.77 1012.08 1011.64
1019.05 1018.57 1018.10 1017.62 1017.01 1016.33 1015.68 1014.96 1014.19 1013.50 1012.92 1012.38 1012.16 1012.01 1011.61 1010.92 1010.84 1010.94 1011.56 1011.73 1010.62 1009.36 1008.12 1007.49 1007.32 1007.11 1007.20 1006.97 1006.75 1006.58 1006.47 1006.15 1006.34 1006.55 1006.33 1007.37 1007.58 1006.24 1005.53 1005.27 1005.85 1006.55 1007.58 1009.35 1010.77 1011.97 1011.84
1019.16 1018.63 1018.15 1017.58 1017.01 1016.32 1015.56 1014.84 1014.03 1013.25 1012.57 1012.12 1012.07 1011.95 1011.61 1011.17 1011.19 1011.68 1012.57 1011.98 1010.49 1008.57 1008.14 1007.50 1007.21 1007.23 1007.34 1007.24 1007.03 1006.82 1006.63 1006.11 1006.05 1006.34 1006.66 1007.41 1007.52 1006.64 1006.01 1005.98 1006.13 1007.06 1007.65 1009.31 1010.55 1011.14 1011.32
1019.31 1018.80 1018.23 1017.67 1017.02 1016.29 1015.55 1014.78 1013.92 1013.11 1012.41 1011.99 1012.05 1012.60 1011.75 1011.45 1012.10 1013.18 1012.75 1011.61 1010.13 1008.68 1007.74 1007.47 1007.25 1007.12 1007.12 1007.17 1007.17 1007.02 1006.68 1006.18 1005.83 1006.14 1006.77 1007.27 1007.82 1007.62 1006.60 1005.87 1005.86 1006.12 1007.11 1008.36 1010.12 1011.31 1011.23
1019.33 1018.81 1018.28 1017.70 1017.05 1016.33 1015.62 1014.81 1013.90 1013.04 1012.35 1012.38 1012.85 1012.97 1011.89 1011.70 1012.85 1013.36 1012.42 1011.41 1010.22 1008.91 1008.03 1007.46 1007.20 1007.03 1007.10 1007.28 1007.49 1007.08 1006.69 1006.10 1006.14 1006.36 1006.94 1007.26 1008.24 1008.17 1007.22 1006.85 1006.28 1006.41 1006.94 1007.85 1008.78 1009.69 1010.53
1019.39 1018.89 1018.35 1017.79 1017.19 1016.50 1015.75 1014.93 1014.04 1013.19 1012.61 1012.72 1013.21 1013.63 1013.11 1012.84 1013.13 1013.04 1012.68 1011.68 1010.30 1008.96 1008.54 1008.01 1007.66 1007.21 1007.37 1007.57 1007.71 1007.62 1007.29 1006.62 1006.41 1006.66 1006.99 1007.39 1008.96 1009.04 1008.59 1007.71 1007.16 1006.98 1007.10 1007.59 1008.45 1009.46 1009.87
1019.51 1019.02 1018.52 1017.96 1017.35 1016.69 1015.97 1015.18 1014.28 1013.46 1012.93 1013.09 1013.77 1014.68 1014.27 1013.96 1013.77 1013.25 1012.69 1011.86 1010.88 1009.88 1008.94 1008.51 1008.18 1008.15 1008.09 1008.14 1008.22 1008.10 1007.76 1007.39 1006.92 1007.20 1007.53 1008.24 1008.93 1008.96 1008.46 1008.06 1007.53 1007.03 1006.94 1007.25 1007.77 1007.77 1008.16
1019.64 1019.20 1018.72 1018.19 1017.63 1017.01 1016.28 1015.48 1014.61 1013.66 1013.04 1013.47 1014.88 1015.15 1014.73 1014.39 1013.90 1013.37 1012.77 1011.93 1011.22 1010.53 1009.96 1009.32 1009.16 1008.79 1008.43 1008.37 1008.44 1008.41 1008.20 1008.05 1007.88 1007.78 1008.25 1008.99 1009.54 1009.56 1009.14 1008.25 1007.90 1007.51 1006.89 1006.80 1006.89 1006.81 1006.86
1019.78 1019.37 1018.89 1018.37 1017.83 1017.31 1016.75 1016.14 1015.45 1014.43 1013.27 1014.68 1015.57 1015.29 1014.94 1015.06 1014.45 1013.87 1013.01 1012.24 1011.65 1011.25 1010.13 1009.53 1009.42 1009.27 1008.82 1008.50 1008.52 1008.26 1008.27 1008.27 1008.30 1008.58 1009.09 1009.74 1010.20 1010.54 1010.10 1009.00 1008.41 1007.48 1006.34 1006.19 1006.09 1006.06 1006.01
1019.91 1019.50 1019.05 1018.59 1018.16 1017.69 1017.24 1016.74 1016.17 1015.68 1015.48 1015.89 1016.22 1015.97 1015.70 1015.61 1014.91 1013.97 1013.19 1012.77 1012.24 1011.76 1011.31 1010.16 1009.78 1009.53 1008.82 1008.51 1008.23 1008.30 1008.44 1008.36 1008.55 1008.69 1009.17 1009.85 1010.71 1010.94 1010.87 1009.91 1008.86 1006.90 1005.93 1005.56 1005.68 1005.58 1005.57
1020.04 1019.69 1019.30 1018.89 1018.43 1017.97 1017.53 1017.08 1016.67 1016.34 1015.98 1016.04 1016.37 1016.35 1016.38 1015.99 1015.17 1014.06 1013.42 1013.05 1012.48 1011.97 1011.65 1010.68 1009.78 1009.41 1009.25 1009.20 1009.36 1009.30 1009.20 1009.08 1008.77 1009.25 1009.63 1010.00 1010.58 1011.40 1011.39 1010.45 1008.79 1007.04 1006.23 1005.75 1005.75 1005.53 1005.41
1020.07 1019.77 1019.41 1019.03 1018.62 1018.19 1017.76 1017.36 1017.00 1016.67 1016.33 1016.30 1016.68 1016.58 1016.54 1016.55 1015.20 1014.14 1013.76 1013.37 1013.11 1012.62 1012.05 1011.03 1010.18 1009.70 1009.68 1010.26 1010.46 1010.56 1010.38 1009.67 1009.53 1009.75 1010.01 1010.49 1010.60 1010.89 1011.72 1010.65 1009.03 1006.90 1005.91 1005.62 1005.70 1005.41 1005.32
1020.01 1019.76 1019.49 1019.17 1018.79 1018.38 1017.95 1017.55 1017.22 1016.99 1016.71 1016.79 1017.01 1016.79 1016.73 1016.78 1014.83 1014.35 1013.83 1013.32 1013.13 1013.10 1013.02 1012.39 1011.79 1010.92 1010.67 1011.31 1011.46 1011.23 1010.67 1009.86 1009.86 1009.86 1010.29 1010.63 1011.02 1011.14 1010.89 1010.08 1008.37 1006.39 1005.89 1005.98 1006.19 1006.09 1005.74
1019.88 1019.66 1019.42 1019.14 1018.80 1018.46 1018.10 1017.73 1017.44 1017.23 1016.97 1017.05 1017.27 1017.02 1017.12 1017.00 1015.16 1014.07 1013.42 1013.16 1012.99 1013.18 1013.36 1012.96 1012.64 1012.14 1011.89 1011.93 1011.97 1011.37 1011.02 1010.04 1009.89 1009.50 1009.46 1009.91 1010.57 1010.93 1010.59 1009.53 1007.86 1005.94 1006.27 1006.29 1005.55 1005.65 1005.61
1019.73 1019.46 1019.25 1019.03 1018.76 1018.47 1018.18 1017.88 1017.61 1017.41 1017.18 1017.07 1017.40 1017.25 1017.26 1017.39 1015.24 1014.08 1013.21 1012.44 1012.13 1012.28 1012.98 1013.38 1013.14 1012.65 1011.91 1012.07 1012.09 1011.82 1011.33 1010.81 1010.32 1010.09 1009.28 1009.33 1008.89 1009.23 1009.04 1007.65 1006.13 1005.70 1005.37 1004.94 1005.18 1005.52 1005.50
Wind_Speed
11 12 12 13 13 13 13 13 14 14 14 15 15 15 15 15 15 15 14 15 16 17 16 15 14 13 3 2 8 4 9 15 10 5 5 5 4 3 3 4 4 6 5 7 10 4 1
11 11 12 12 12 13 14 14 14 14 15 16 15 16 16 16 15 15 15 15 16 17 16 15 12 11 1 2 3 5 8 7 7 5 5 5 5 6 3 3 0 4 4 11 7 9 6
10 11 11 12 13 14 14 15 16 15 15 15 16 15 16 17 17 17 17 16 17 17 15 12 8 3 2 12 4 5 3 5 6 6 6 5 4 2 2 8 4 6 8 7 6 2 1
11 11 11 12 13 13 14 15 15 15 16 16 16 17 17 17 17 18 19 19 18 16 12 7 3 1 8 4 2 9 4 3 4 5 2 2 4 2 3 4 8 4 5 6 4 4 3
12 12 12 13 13 13 13 15 16 16 16 16 16 17 18 18 19 19 19 21 16 4 5 6 2 2 9 7 3 4 5 4 6 2 4 2 6 4 3 2 5 6 0 2 8 5 4
12 12 13 13 14 14 15 15 16 16 17 16 16 17 17 18 18 18 21 17 2 4 3 3 2 2 4 1 5 4 0 2 1 2 3 2 4 3 3 5 3 5 5 4 3 2 5
11 13 14 14 14 14 14 15 16 16 16 17 17 17 17 18 18 16 11 2 5 3 1 6 3 3 4 7 3 1 2 4 3 7 2 2 4 4 6 5 4 2 2 5 8 8 5
11 13 13 14 14 14 15 16 16 16 17 17 17 17 18 19 19 14 1 6 4 2 8 6 5 6 4 1 4 2 5 5 4 4 0 6 2 7 2 4 3 2 3 7 8 4 2
12 11 12 13 14 14 16 16 16 16 17 17 17 17 18 18 20 1 2 3 3 2 1 8 5 4 4 7 5 5 6 4 4 5 3 6 5 5 2 2 1 2 4 3 7 9 4
12 12 13 14 13 15 15 15 16 16 16 16 17 16 17 24 2 3 2 1 6 4 6 6 3 4 3 4 3 5 5 7 2 10 7 5 3 4 4 3 6 5 6 4 5 3 5
13 13 14 14 15 15 16 16 16 16 17 16 17 15 13 9 3 0 4 6 5 4 5 3 1 2 2 5 1 3 3 5 8 5 7 9 3 3 5 7 7 9 1 3 3 3 3
13 14 14 15 16 16 16 16 17 17 18 17 16 12 11 1 1 6 7 7 3 7 3 3 4 3 4 3 2 3 3 6 4 5 2 6 2 4 7 5 7 1 3 6 5 4 3
14 14 14 15 16 16 17 17 18 18 18 18 15 10 5 1 2 7 6 5 6 5 3 7 2 2 2 1 3 3 1 1 4 4 3 6 6 5 4 2 1 6 7 4 5 5 7
14 14 14 15 16 17 17 18 18 19 19 19 17 8 4 4 3 7 4 7 5 2 4 4 4 2 3 2 0 2 5 2 2 6 3 4 8 5 4 10 8 6 9 8 5 3 6
14 14 15 16 17 18 17 18 19 20 20 22 10 1 1 4 6 1 6 5 4 3 3 6 3 6 5 4 1 1 1 3 7 9 9 5 7 5 4 2 9 3 3 4 8 4 3
15 15 16 16 17 18 18 19 20 21 20 18 1 2 4 2 4 5 7 3 3 4 5 3 3 2 3 5 3 5 1 3 4 10 1 7 4 3 6 2 4 5 7 4 3 5 4
16 16 15 17 17 18 18 20 21 21 20 9 2 4 4 3 1 7 3 5 5 8 4 3 1 1 1 1 1 2 2 4 1 3 3 5 4 6 2 4 8 1 0 6 5 5 7
16 15 17 17 17 18 19 21 22 21 19 3 2 4 4 3 5 1 1 3 5 5 1 5 1 4 4 5 1 1 2 5 6 1 2 3 5 5 13 3 2 2 6 7 7 4 2
15 15 16 17 18 20 20 21 23 22 8 2 4 1 3 4 3 3 5 5 3 4 4 3 3 2 2 2 1 2 2 5 6 6 2 4 2 4 10 7 3 2 2 6 5 4 5
15 16 17 17 18 19 21 22 23 23 5 2 4 3 4 5 0 3 2 4 6 4 2 4 3 4 2 2 3 1 3 3 7 3 6 7 3 5 6 6 4 3 1 4 5 4 5
16 17 17 17 18 20 21 22 24 23 4 2 4 0 2 1 2 1 1 2 3 6 4 6 4 6 3 2 1 1 2 6 5 5 3 4 4 4 5 5 3 2 4 4 6 5 6
15 16 17 17 18 18 20 22 25 27 6 5 3 2 3 1 3 1 1 3 1 4 1 3 3 6 3 1 2 3 1 3 6 3 3 3 2 1 4 3 3 5 7 7 5 4 5
14 15 16 17 18 18 19 21 23 26 11 4 2 1 4 2 2 2 4 1 1 4 4 3 1 2 3 3 3 9 7 5 6 3 3 1 6 3 5 2 7 6 7 8 4 2 5
14 15 16 17 17 18 17 18 19 19 11 2 0 2 4 3 1 3 1 1 5 4 4 6 5 4 3 5 4 1 3 6 6 5 4 7 4 3 5 2 6 6 4 6 6 5 6
13 14 15 15 16 17 17 17 17 17 15 3 0 3 3 2 3 5 2 4 6 5 5 5 5 2 4 4 1 4 5 5 4 3 4 2 6 3 4 5 4 2 5 5 7 9 6
12 13 14 15 15 16 16 16 16 16 16 3 2 0 3 3 5 0 1 1 2 3 6 5 6 5 3 3 3 6 5 6 4 2 4 4 3 5 3 4 7 8 3 2 3 8 5
11 12 12 13 15 15 15 16 15 15 14 3 1 2 3 1 5 5 5 3 2 1 3 4 6 7 4 2 3 5 6 6 5 6 5 1 1 5 4 4 7 8 4 2 4 7 4
9 10 11 12 14 15 15 14 14 13 13 4 2 3 3 2 7 6 4 5 1 2 3 3 6 2 2 1 4 4 4 5 1 4 8 9 7 5 3 3 7 6 4 6 7 3 4
11 12 12 12 13 14 14 13 12 12 11 5 2 3 1 3 7 2 6 5 6 6 5 2 4 3 5 2 2 1 2 1 3 4 1 3 8 7 10 9 4 5 6 5 3 4 5
Wind_Direction
354 355 354 354 355 353 351 351 348 343 342 342 340 337 336 333 329 325 321 317 315 315 317 319 322 325 333 350 253 60 84 128 135 133 158 155 156 189 269 282 298 180 231 224 246 188 210
353 353 350 349 351 347 346 344 344 341 340 340 337 333 331 329 326 321 318 314 312 312 312 314 320 322 299 260 342 101 112 123 139 145 178 182 209 203 250 269 229 272 175 249 214 202 209
351 351 348 346 346 345 346 344 341 340 339 337 334 333 330 328 326 322 318 314 310 306 301 301 308 312 39 236 111 350 299 181 178 173 174 210 203 136 327 328 293 306 349 23 9 279 286
345 347 346 345 342 343 343 339 340 337 335 335 334 331 329 327 324 320 316 312 306 297 284 279 271 257 246 249 298 301 156 251 222 222 204 199 162 121 172 302 344 27 30 17 341 127 23
344 344 343 341 341 345 341 340 337 335 334 334 331 329 327 327 324 320 315 311 306 291 166 151 83 83 273 309 257 288 175 199 157 192 227 119 123 161 54 111 14 8 115 331 332 210 96
342 340 342 342 341 342 341 341 337 335 332 331 328 327 325 323 321 323 319 309 221 111 134 194 258 354 288 333 299 306 268 241 176 158 91 98 55 102 52 69 257 309 338 297 179 348 244
344 343 342 340 341 341 338 338 333 331 328 328 329 325 324 321 322 326 333 34 19 2 129 204 185 247 275 292 275 192 160 113 80 49 144 1 97 185 226 156 160 257 265 286 291 226 252
348 348 341 340 339 338 337 333 332 329 327 328 327 326 326 324 324 325 174 77 103 163 311 249 239 275 286 87 295 268 128 127 106 187 25 15 206 219 107 142 175 234 297 295 284 269 247
349 341 340 337 338 340 334 332 331 329 328 327 326 325 325 325 321 340 1 140 70 157 119 298 201 195 211 142 211 255 129 126 130 149 160 156 229 120 159 137 85 256 221 263 267 327 292
347 344 343 342 336 333 334 331 329 327 325 323 324 327 329 327 333 308 288 314 316 196 56 286 344 289 123 171 269 212 201 136 105 177 159 221 253 193 175 210 140 274 202 232 265 13 295
350 350 342 340 338 337 336 331 326 324 322 323 325 325 328 341 288 289 307 334 307 61 64 318 61 146 120 153 279 339 212 56 151 159 116 244 181 157 192 201 169 230 179 256 283 217 5
351 348 346 342 340 336 330 329 326 324 322 320 320 316 325 122 272 257 315 314 65 42 42 6 145 149 114 352 357 331 116 57 133 118 338 231 257 177 212 176 185 282 49 37 50 78 30
353 350 347 343 340 333 330 328 326 323 321 319 316 304 295 310 231 314 304 46 43 94 305 316 349 61 104 114 38 36 43 338 150 86 280 335 253 243 162 173 358 80 60 343 353 12 223
353 351 351 346 340 334 334 330 327 324 324 324 320 297 227 228 296 342 47 50 79 254 301 328 15 42 86 18 176 324 125 181 155 94 104 173 321 178 197 175 174 178 151 153 220 198 260
357 353 353 349 343 343 334 331 329 327 331 333 324 3 261 266 207 332 69 69 200 219 290 331 326 64 4 3 92 79 168 244 212 166 172 157 276 289 237 151 130 173 157 186 104 15 61
360 358 355 351 349 347 338 335 332 332 335 336 38 12 351 49 170 63 72 225 251 221 317 8 63 117 49 331 43 28 8 228 287 195 347 205 298 236 286 74 47 163 161 75 7 167 219
358 1 358 357 353 349 343 339 336 336 334 335 38 61 323 14 11 47 120 232 272 245 223 219 226 65 100 360 311 336 289 287 1 14 156 140 136 259 79 210 191 25 217 48 117 124 163
358 355 3 3 357 349 346 343 340 340 337 52 83 61 328 3 48 36 124 212 272 292 267 272 173 184 179 186 187 277 243 220 2 284 125 207 158 232 220 231 165 141 176 149 128 219 123
357 359 357 354 353 358 351 349 347 347 336 104 84 124 333 60 85 345 303 293 270 305 324 354 245 207 152 204 300 195 284 309 8 21 33 179 348 4 343 5 12 144 165 91 97 78 186
359 0 360 357 357 355 354 354 355 358 28 74 89 73 339 47 70 136 11 300 320 311 272 346 325 63 98 65 26 294 331 296 332 52 62 85 109 158 196 226 186 138 109 126 128 109 174
360 1 1 1 360 358 358 359 359 0 2 35 29 157 186 239 327 333 174 269 314 349 357 18 28 29 343 49 60 289 247 326 336 351 76 93 172 183 224 243 304 268 215 202 188 186 158
1 2 3 3 3 3 4 5 2 360 357 75 93 87 5 80 324 306 99 213 275 328 273 342 64 319 313 137 219 271 257 197 239 318 43 15 311 72 285 249 227 253 248 246 238 186 250
0 3 5 6 7 7 8 11 8 5 5 75 334 6 105 316 4 90 231 201 305 352 274 226 29 305 256 208 277 246 213 237 236 212 215 155 140 111 264 318 313 310 216 200 199 189 170
359 2 4 7 8 9 9 11 13 14 33 106 81 98 77 277 228 212 250 21 274 265 261 289 294 202 242 335 269 180 251 256 252 242 194 160 150 139 222 26 248 246 280 222 194 209 213
355 358 0 3 6 8 9 11 14 11 13 77 30 87 101 281 232 297 256 227 305 287 244 239 261 237 343 354 37 333 330 333 234 61 229 214 131 168 179 197 284 239 210 153 179 253 205
347 352 355 359 2 4 6 8 11 11 10 70 43 39 99 112 248 258 265 258 251 284 320 270 323 317 51 82 109 194 216 217 262 209 108 88 62 133 137 188 220 237 161 92 115 268 250
335 341 347 351 357 360 2 4 9 8 11 59 360 15 95 166 263 158 198 188 214 212 238 314 334 335 44 120 185 182 232 193 209 185 187 71 24 186 172 216 282 249 201 106 142 263 201
322 329 337 342 350 354 357 358 3 6 5 41 290 357 92 208 273 207 222 186 189 139 176 286 2 333 345 166 168 228 199 230 198 206 182 172 166 204 101 143 273 174 114 171 218 210 213
325 329 335 337 342 346 349 349 353 359 359 35 1 339 24 178 252 284 258 260 213 181 132 252 224 256 230 110 230 149 265 274 178 244 51 232 185 186 176 207 237 205 212 231 168 240 254